DW3263 Weather Reports


time (UTC)temp
F
wind
direction
speed
knots
gust
knots
rain 1hr
in
rain 24hr
in
rain mn
in
humidity
%
barometer
mb
20200531064633 57 315 1.7 4.3 0.00 0.00 0.00 62 1016.1
20200531063632 57 270 1.7 4.3 0.00 0.00 0.00 62 1016.1
20200531062634 57 338 1.7 3.5 0.00 0.00 0.00 62 1016.0
20200531061633 58 0.0 1.7 0.00 0.00 0.00 60 1016.1
20200531060632 58 338 1.7 3.5 0.00 0.00 0.00 60 1015.9
20200531055518 59 338 0.9 4.3 0.00 0.01 0.00 57 1015.9
20200531054634 59 338 1.7 7.0 0.00 0.01 0.00 56 1015.8
20200531053632 59 0 4.3 11.3 0.00 0.01 0.00 56 1015.9
20200531052532 59 293 2.6 6.1 0.00 0.01 0.00 57 1015.7
20200531051634 60 293 3.5 7.0 0.00 0.01 0.00 57 1015.7
20200531050634 60 315 2.6 5.2 0.00 0.01 0.00 57 1015.7
20200531045632 60 315 2.6 4.3 0.00 0.01 0.00 57 1015.8
20200531044517 60 315 1.7 3.5 0.00 0.01 0.00 56 1015.7
20200531043634 61 293 3.5 6.1 0.00 0.01 0.00 55 1015.7
20200531042518 61 338 2.6 7.0 0.00 0.01 0.00 57 1015.7
20200531041632 60 338 2.6 5.2 0.00 0.01 0.00 64 1015.7
20200531040632 60 338 1.7 2.6 0.00 0.01 0.00 70 1015.8
20200531035633 62 338 0.9 2.6 0.00 0.01 0.01 64 1015.6
20200531034532 63 0.0 0.9 0.00 0.01 0.01 61 1015.5
20200531033632 63 338 1.7 6.1 0.00 0.01 0.01 61 1015.5
20200531032633 64 338 0.9 4.3 0.00 0.01 0.01 59 1015.4
20200531031633 64 293 3.5 5.2 0.00 0.01 0.01 58 1015.2
20200531030519 65 315 3.5 8.7 0.00 0.01 0.01 58 1015.2
20200531025633 65 338 4.3 9.6 0.00 0.01 0.01 57 1015.1
20200531024633 65 315 4.3 12.2 0.00 0.01 0.01 58 1015.0
20200531023633 66 338 4.3 10.4 0.00 0.01 0.01 59 1014.8
20200531022633 66 338 3.5 6.1 0.00 0.02 0.01 60 1014.8
20200531021633 66 315 3.5 10.4 0.00 0.05 0.01 60 1014.5
20200531020633 66 315 2.6 5.2 0.00 0.10 0.01 60 1014.3
20200531015519 67 315 3.5 6.1 0.00 0.12 0.01 59 1014.2
20200531014633 67 293 2.6 7.0 0.00 0.39 0.01 59 1014.2
20200531013633 68 293 3.5 7.8 0.00 0.39 0.01 58 1014.1
20200531012633 68 315 3.5 8.7 0.00 0.39 0.01 58 1013.9
20200531011633 68 315 5.2 10.4 0.00 0.39 0.01 58 1013.7
20200531010633 68 315 2.6 10.4 0.00 0.39 0.01 61 1013.6
20200531005633 68 270 3.5 6.1 0.00 0.39 0.01 60 1013.4
20200531004633 69 315 1.7 5.2 0.00 0.39 0.01 60 1013.3
20200531003633 69 315 2.6 7.8 0.00 0.39 0.01 60 1013.2
20200531002633 69 293 3.5 7.0 0.00 0.39 0.01 59 1013.0
20200531001633 70 315 4.3 8.7 0.00 0.39 0.01 58 1012.9
20200531000633 71 338 3.5 7.8 0.00 0.39 0.01 57 1012.7
20200530235519 71 315 2.6 5.2 0.00 0.39 0.01 56 1012.6
20200530234633 72 293 2.6 7.0 0.00 0.39 0.01 54 1012.4
20200530233519 72 338 6.1 10.4 0.00 0.39 0.01 54 1012.3
20200530232634 73 315 3.5 7.0 0.00 0.39 0.01 55 1012.2
20200530231633 73 315 2.6 7.8 0.00 0.39 0.01 55 1012.3
20200530230634 73 338 6.1 13.0 0.00 0.39 0.01 54 1012.2
20200530225633 74 315 4.3 7.8 0.00 0.39 0.01 53 1012.1
20200530224634 74 338 4.3 9.6 0.00 0.39 0.01 53 1012.0
20200530223633 74 315 3.5 7.0 0.00 0.39 0.01 52 1011.8
20200530222519 75 293 1.7 5.2 0.00 0.39 0.01 56 1011.8
20200530221633 75 315 1.7 5.2 0.00 0.39 0.01 51 1011.7
20200530220633 75 270 3.5 8.7 0.00 0.39 0.01 52 1011.6
20200530215633 76 315 3.5 7.0 0.00 0.39 0.01 51 1011.6
20200530214633 75 338 1.7 4.3 0.00 0.39 0.01 54 1011.7
20200530213633 75 338 3.5 7.0 0.00 0.39 0.01 54 1011.7
20200530212519 75 338 5.2 8.7 0.00 0.39 0.01 53 1011.9
20200530211633 75 338 6.1 9.6 0.00 0.39 0.01 54 1011.9
20200530210633 75 338 4.3 8.7 0.00 0.39 0.01 55 1012.0
20200530205633 74 315 2.6 7.0 0.00 0.39 0.01 55 1012.1
20200530204633 74 338 5.2 10.4 0.00 0.39 0.01 54 1012.1
20200530203633 74 315 4.3 15.6 0.00 0.39 0.01 52 1012.1
20200530202634 75 338 6.1 11.3 0.00 0.39 0.01 50 1011.9
20200530201633 75 338 4.3 10.4 0.00 0.39 0.01 51 1011.7
20200530200634 75 315 5.2 8.7 0.00 0.39 0.01 54 1011.7
20200530195633 76 293 2.6 7.8 0.00 0.39 0.01 50 1011.6
20200530194518 75 293 1.7 5.2 0.00 0.39 0.01 54 1011.8
20200530193634 75 270 3.5 7.8 0.00 0.39 0.01 53 1011.7
20200530192632 75 293 4.3 9.6 0.00 0.39 0.01 52 1011.8
20200530191634 75 315 1.7 6.1 0.00 0.39 0.01 54 1011.9
20200530190520 75 338 4.3 7.0 0.00 0.39 0.01 51 1011.9
20200530185634 75 315 2.6 6.1 0.00 0.39 0.01 51 1012.0
20200530184517 76 315 4.3 10.4 0.00 0.39 0.01 51 1012.0
20200530183633 77 248 5.2 12.2 0.00 0.39 0.01 49 1011.8
20200530182633 76 270 5.2 10.4 0.00 0.39 0.01 50 1012.0
20200530181632 76 293 4.3 10.4 0.00 0.39 0.01 49 1012.1
20200530180634 76 338 3.5 8.7 0.00 0.39 0.01 50 1012.2
20200530175634 75 338 0.9 4.3 0.00 0.39 0.01 52 1012.3
20200530174632 75 338 0.9 5.2 0.00 0.39 0.01 54 1012.4
20200530173518 75 315 4.3 9.6 0.00 0.39 0.01 50 1012.5
20200530172633 75 315 2.6 7.8 0.00 0.39 0.01 51 1012.6
20200530171633 75 315 1.7 5.2 0.00 0.39 0.01 55 1012.6
20200530170632 74 315 3.5 9.6 0.00 0.39 0.01 54 1012.7
20200530165634 74 338 4.3 7.8 0.00 0.39 0.01 57 1012.7
20200530164634 74 270 3.5 9.6 0.00 0.39 0.01 55 1012.8
20200530163632 73 248 3.5 7.0 0.00 0.39 0.01 55 1012.7
20200530162518 73 315 5.2 9.6 0.00 0.39 0.01 56 1012.7
20200530161634 73 293 4.3 8.7 0.00 0.39 0.01 57 1012.8
20200530160631 73 315 1.7 7.0 0.00 0.39 0.01 58 1012.9
20200530155632 72 338 1.7 7.0 0.00 0.39 0.01 61 1012.9
20200530154632 72 270 3.5 9.6 0.00 0.39 0.01 59 1013.1
20200530153632 72 315 2.6 7.0 0.00 0.39 0.01 62 1013.2
20200530152634 71 338 3.5 9.6 0.00 0.39 0.01 62 1013.3
20200530151634 71 0 3.5 12.2 0.00 0.39 0.01 61 1013.4
20200530150632 71 338 1.7 7.8 0.00 0.39 0.01 63 1013.6
20200530145632 70 23 3.5 7.8 0.00 0.39 0.01 61 1013.7
20200530144634 69 338 3.5 7.0 0.00 0.39 0.01 62 1013.8
20200530143632 68 315 0.9 4.3 0.00 0.39 0.01 67 1013.8
20200530142632 68 315 3.5 6.1 0.00 0.39 0.01 65 1013.7
20200530141517 68 338 3.5 8.7 0.00 0.39 0.01 66 1013.9
20200530140520 67 315 3.5 7.8 0.00 0.39 0.01 68 1013.9
20200530135633 67 315 2.6 6.1 0.00 0.39 0.01 66 1013.9
20200530134632 67 315 4.3 9.6 0.00 0.39 0.01 66 1014.1
20200530133634 67 45 1.7 6.1 0.00 0.39 0.01 69 1014.1
20200530132632 66 0 3.5 7.0 0.00 0.39 0.01 68 1014.0
20200530131632 66 270 2.6 7.0 0.00 0.39 0.01 69 1014.2
20200530130517 66 0 1.7 6.1 0.00 0.39 0.01 67 1014.2
20200530125632 65 338 2.6 7.8 0.00 0.39 0.01 69 1013.9
20200530124632 65 338 2.6 7.0 0.00 0.39 0.01 71 1013.9
20200530123632 65 338 1.7 5.2 0.00 0.39 0.01 70 1013.9
20200530122634 65 338 0.9 3.5 0.00 0.39 0.01 73 1013.9
20200530121632 64 338 2.6 7.0 0.00 0.39 0.01 72 1013.8
20200530120632 64 338 1.7 4.3 0.00 0.39 0.01 74 1013.8
20200530115632 63 338 1.7 5.2 0.00 0.39 0.01 76 1013.8
20200530114518 63 338 3.5 8.7 0.00 0.39 0.01 76 1013.6
20200530113632 62 315 4.3 7.0 0.00 0.39 0.01 78 1013.3
20200530112632 62 293 2.6 7.0 0.00 0.39 0.01 81 1013.4
20200530111630 62 293 2.6 5.2 0.00 0.39 0.01 84 1013.3
20200530110632 62 293 1.7 4.3 0.00 0.39 0.01 85 1013.4
20200530105632 62 293 3.5 7.0 0.00 0.39 0.01 84 1013.2
20200530104518 61 293 3.5 6.1 0.00 0.39 0.01 84 1013.2
20200530103632 61 293 2.6 6.1 0.00 0.39 0.01 87 1013.1
20200530102632 61 270 2.6 6.1 0.00 0.39 0.01 88 1013.0
20200530101632 61 293 2.6 5.2 0.00 0.39 0.01 89 1012.9
20200530100631 62 293 2.6 6.1 0.00 0.39 0.01 89 1013.1
20200530095632 62 293 2.6 5.2 0.00 0.39 0.01 90 1012.8
20200530094632 62 315 3.5 9.6 0.00 0.39 0.01 91 1012.7
20200530093518 62 315 2.6 7.0 0.00 0.39 0.01 93 1012.6
20200530092632 62 315 3.5 5.2 0.00 0.39 0.01 92 1012.5
20200530091632 62 315 3.5 7.0 0.00 0.39 0.01 93 1012.3
20200530090632 62 315 0.9 3.5 0.00 0.39 0.01 95 1012.2
20200530085633 62 315 2.6 4.3 0.00 0.39 0.01 97 1012.0
20200530084632 62 315 2.6 7.0 0.00 0.39 0.01 97 1011.9
20200530083632 62 315 1.7 4.3 0.00 0.39 0.01 97 1011.7
20200530082518 62 315 2.6 4.3 0.00 0.39 0.01 97 1011.5
20200530081632 62 0.0 0.0 0.00 0.39 0.01 97 1011.5
20200530080633 62 0.0 0.0 0.00 0.39 0.01 97 1011.4
20200530075632 62 0.0 0.0 0.00 0.39 0.01 97 1011.4
20200530074632 62 0.0 0.0 0.00 0.39 0.01 97 1011.3
20200530073632 62 0.0 0.0 0.00 0.39 0.01 96 1011.2
20200530072518 63 0.0 0.0 0.00 0.39 0.01 96 1011.3
20200530071518 63 0.0 0.0 0.00 0.39 0.01 96 1011.3
20200530070632 63 0.0 0.0 0.00 0.39 0.01 96 1011.4
20200530065632 63 315 1.7 5.2 0.01 0.39 0.01 96 1011.4